QPF
0.00 0.00 0.00 0.00 0.00 0.00 0.00 0.00 0.01 0.00 0.01 0.00 0.00 0.00 0.00 0.00 0.00 0.00 0.00 0.00 0.00 0.00 0.00 0.01 0.02 0.01 0.02 0.02 0.01 0.01 0.02 0.01 0.01 0.01 0.01 0.01 0.02 0.03 0.04 0.06 0.07 0.04 0.03
0.00 0.00 0.00 0.00 0.00 0.00 0.00 0.01 0.01 0.01 0.01 0.00 0.00 0.00 0.00 0.00 0.00 0.00 0.00 0.00 0.00 0.00 0.00 0.00 0.00 0.01 0.01 0.01 0.01 0.01 0.01 0.01 0.01 0.02 0.02 0.01 0.02 0.03 0.03 0.04 0.07 0.05 0.03
0.00 0.00 0.00 0.00 0.00 0.00 0.00 0.00 0.01 0.00 0.00 0.00 0.00 0.00 0.00 0.00 0.00 0.00 0.00 0.00 0.00 0.00 0.00 0.00 0.00 0.00 0.01 0.01 0.00 0.00 0.00 0.00 0.01 0.01 0.02 0.02 0.01 0.03 0.04 0.04 0.05 0.03 0.02
0.00 0.00 0.00 0.00 0.00 0.00 0.00 0.00 0.00 0.00 0.00 0.00 0.00 0.00 0.00 0.00 0.00 0.00 0.00 0.00 0.00 0.00 0.00 0.00 0.00 0.00 0.00 0.00 0.00 0.00 0.00 0.00 0.01 0.01 0.02 0.02 0.01 0.03 0.05 0.04 0.04 0.03 0.02
0.00 0.00 0.00 0.00 0.00 0.00 0.00 0.00 0.00 0.00 0.00 0.00 0.00 0.00 0.00 0.00 0.00 0.00 0.00 0.00 0.00 0.01 0.01 0.00 0.00 0.00 0.00 0.00 0.00 0.00 0.00 0.01 0.00 0.00 0.01 0.03 0.05 0.03 0.04 0.03 0.03 0.03 0.02
0.00 0.00 0.00 0.00 0.00 0.00 0.00 0.00 0.00 0.00 0.00 0.00 0.00 0.00 0.00 0.00 0.00 0.00 0.00 0.00 0.00 0.01 0.01 0.01 0.01 0.00 0.00 0.00 0.00 0.00 0.01 0.00 0.00 0.00 0.00 0.02 0.04 0.03 0.04 0.03 0.03 0.03 0.02
0.00 0.00 0.00 0.00 0.00 0.00 0.00 0.00 0.00 0.00 0.00 0.00 0.00 0.00 0.00 0.00 0.00 0.00 0.00 0.01 0.01 0.01 0.01 0.01 0.01 0.01 0.01 0.00 0.00 0.00 0.01 0.01 0.01 0.00 0.00 0.01 0.04 0.02 0.03 0.04 0.04 0.03 0.02
0.00 0.00 0.00 0.00 0.00 0.00 0.00 0.00 0.00 0.00 0.00 0.00 0.00 0.00 0.00 0.00 0.00 0.00 0.00 0.01 0.01 0.01 0.01 0.01 0.01 0.00 0.00 0.01 0.00 0.00 0.01 0.01 0.01 0.01 0.00 0.01 0.02 0.01 0.02 0.04 0.05 0.03 0.02
0.00 0.00 0.00 0.00 0.00 0.01 0.00 0.00 0.00 0.00 0.00 0.00 0.00 0.00 0.00 0.00 0.00 0.00 0.01 0.01 0.01 0.02 0.02 0.02 0.02 0.01 0.01 0.01 0.01 0.01 0.01 0.02 0.03 0.02 0.01 0.01 0.01 0.01 0.03 0.03 0.03 0.03 0.03
0.00 0.00 0.00 0.00 0.01 0.01 0.01 0.01 0.01 0.01 0.01 0.01 0.01 0.01 0.01 0.01 0.01 0.02 0.01 0.01 0.01 0.02 0.03 0.03 0.03 0.02 0.02 0.02 0.01 0.02 0.02 0.03 0.03 0.04 0.04 0.02 0.01 0.02 0.04 0.04 0.03 0.03 0.03
0.00 0.01 0.01 0.01 0.01 0.01 0.01 0.02 0.02 0.02 0.02 0.02 0.02 0.02 0.02 0.02 0.03 0.04 0.03 0.02 0.02 0.02 0.03 0.04 0.06 0.06 0.05 0.03 0.02 0.02 0.02 0.03 0.03 0.06 0.06 0.03 0.02 0.05 0.06 0.06 0.05 0.04 0.04
0.00 0.01 0.01 0.01 0.01 0.02 0.02 0.03 0.04 0.05 0.05 0.05 0.05 0.05 0.05 0.05 0.04 0.03 0.03 0.04 0.04 0.04 0.05 0.06 0.08 0.09 0.07 0.05 0.04 0.03 0.02 0.02 0.03 0.03 0.03 0.03 0.04 0.08 0.12 0.11 0.07 0.06 0.04
0.00 0.01 0.01 0.01 0.01 0.02 0.03 0.03 0.05 0.06 0.07 0.07 0.06 0.07 0.07 0.08 0.07 0.06 0.06 0.05 0.05 0.06 0.07 0.09 0.11 0.11 0.10 0.09 0.08 0.06 0.03 0.03 0.03 0.02 0.02 0.03 0.04 0.08 0.13 0.18 0.15 0.10 0.06
0.01 0.01 0.01 0.01 0.02 0.03 0.03 0.04 0.05 0.05 0.06 0.08 0.09 0.09 0.10 0.11 0.11 0.11 0.10 0.09 0.08 0.09 0.10 0.14 0.15 0.17 0.16 0.14 0.13 0.10 0.06 0.05 0.04 0.04 0.03 0.02 0.02 0.04 0.08 0.14 0.17 0.16 0.11
0.02 0.02 0.02 0.02 0.03 0.04 0.04 0.05 0.05 0.05 0.07 0.10 0.14 0.15 0.18 0.18 0.20 0.23 0.16 0.12 0.12 0.12 0.11 0.15 0.17 0.19 0.20 0.21 0.19 0.14 0.11 0.09 0.07 0.05 0.04 0.03 0.02 0.03 0.04 0.08 0.12 0.14 0.13
0.03 0.03 0.02 0.02 0.05 0.06 0.08 0.09 0.07 0.09 0.14 0.16 0.18 0.20 0.21 0.25 0.25 0.26 0.24 0.19 0.15 0.14 0.13 0.14 0.18 0.22 0.23 0.23 0.19 0.17 0.14 0.15 0.11 0.08 0.07 0.07 0.05 0.04 0.04 0.06 0.11 0.14 0.13
0.05 0.05 0.08 0.08 0.07 0.08 0.10 0.10 0.11 0.13 0.15 0.16 0.18 0.23 0.25 0.26 0.26 0.22 0.19 0.16 0.14 0.15 0.15 0.15 0.18 0.20 0.17 0.17 0.16 0.16 0.15 0.14 0.13 0.12 0.11 0.10 0.09 0.07 0.05 0.06 0.09 0.12 0.14
0.09 0.08 0.07 0.06 0.07 0.08 0.11 0.13 0.13 0.15 0.17 0.20 0.23 0.26 0.24 0.24 0.25 0.22 0.18 0.16 0.18 0.19 0.19 0.20 0.21 0.19 0.16 0.16 0.18 0.21 0.20 0.16 0.14 0.12 0.12 0.11 0.11 0.08 0.08 0.06 0.07 0.09 0.12
0.05 0.05 0.04 0.04 0.05 0.07 0.09 0.12 0.15 0.14 0.13 0.16 0.22 0.24 0.26 0.27 0.22 0.18 0.16 0.16 0.20 0.23 0.23 0.24 0.26 0.20 0.16 0.14 0.14 0.17 0.17 0.15 0.11 0.10 0.08 0.08 0.09 0.08 0.08 0.08 0.07 0.08 0.12
0.03 0.04 0.04 0.04 0.04 0.06 0.07 0.08 0.07 0.07 0.07 0.10 0.13 0.12 0.16 0.16 0.13 0.11 0.11 0.12 0.14 0.16 0.15 0.16 0.19 0.18 0.16 0.15 0.15 0.15 0.15 0.12 0.11 0.09 0.08 0.08 0.06 0.05 0.05 0.07 0.09 0.07 0.07
0.07 0.06 0.05 0.04 0.05 0.06 0.08 0.06 0.05 0.05 0.04 0.04 0.05 0.05 0.05 0.05 0.06 0.08 0.08 0.09 0.09 0.10 0.11 0.12 0.14 0.15 0.17 0.19 0.17 0.15 0.12 0.11 0.09 0.07 0.07 0.07 0.06 0.05 0.06 0.08 0.09 0.08 0.06
0.14 0.13 0.09 0.05 0.03 0.04 0.05 0.03 0.03 0.03 0.03 0.03 0.03 0.03 0.03 0.05 0.06 0.06 0.06 0.07 0.08 0.08 0.08 0.10 0.14 0.17 0.18 0.18 0.18 0.18 0.14 0.10 0.06 0.04 0.05 0.05 0.05 0.06 0.05 0.07 0.09 0.09 0.07
0.10 0.10 0.11 0.11 0.06 0.04 0.03 0.02 0.02 0.02 0.01 0.01 0.01 0.02 0.02 0.03 0.03 0.03 0.04 0.06 0.08 0.08 0.07 0.07 0.08 0.11 0.12 0.13 0.14 0.15 0.13 0.11 0.08 0.06 0.04 0.05 0.06 0.07 0.06 0.06 0.06 0.08 0.07
0.04 0.04 0.08 0.09 0.05 0.02 0.02 0.02 0.02 0.02 0.01 0.02 0.02 0.02 0.02 0.01 0.02 0.03 0.04 0.05 0.06 0.08 0.07 0.05 0.05 0.07 0.07 0.07 0.08 0.08 0.08 0.08 0.09 0.07 0.06 0.06 0.07 0.07 0.07 0.07 0.07 0.08 0.09
0.02 0.02 0.02 0.02 0.01 0.01 0.01 0.01 0.01 0.01 0.02 0.02 0.01 0.02 0.01 0.01 0.01 0.01 0.02 0.04 0.04 0.05 0.06 0.05 0.04 0.04 0.05 0.05 0.05 0.05 0.05 0.05 0.05 0.07 0.07 0.07 0.07 0.07 0.07 0.07 0.07 0.08 0.09
0.01 0.01 0.00 0.00 0.00 0.00 0.00 0.01 0.01 0.01 0.01 0.01 0.01 0.01 0.01 0.01 0.01 0.01 0.01 0.02 0.03 0.03 0.04 0.05 0.04 0.03 0.03 0.04 0.04 0.03 0.03 0.03 0.03 0.06 0.07 0.07 0.07 0.07 0.09 0.09 0.09 0.09 0.10
MSLP
1009.63 1009.80 1010.13 1010.58 1011.10 1011.62 1012.06 1012.41 1012.64 1012.78 1012.89 1013.02 1013.22 1013.52 1013.90 1014.34 1014.78 1015.18 1015.48 1015.67 1015.78 1015.82 1015.83 1015.86 1015.92 1016.02 1016.14 1016.27 1016.38 1016.46 1016.49 1016.50 1016.51 1016.54 1016.61 1016.71 1016.86 1017.02 1017.19 1017.34 1017.47 1017.59 1017.70
1009.45 1009.71 1010.12 1010.64 1011.21 1011.77 1012.24 1012.58 1012.81 1012.94 1013.03 1013.15 1013.35 1013.64 1014.03 1014.47 1014.90 1015.29 1015.58 1015.77 1015.87 1015.91 1015.93 1015.98 1016.07 1016.20 1016.35 1016.50 1016.61 1016.68 1016.71 1016.71 1016.71 1016.74 1016.82 1016.95 1017.12 1017.32 1017.51 1017.68 1017.82 1017.93 1018.03
1009.24 1009.59 1010.09 1010.70 1011.34 1011.95 1012.46 1012.84 1013.09 1013.23 1013.33 1013.45 1013.64 1013.92 1014.28 1014.69 1015.08 1015.43 1015.69 1015.85 1015.94 1015.98 1016.03 1016.12 1016.24 1016.41 1016.59 1016.75 1016.86 1016.91 1016.92 1016.89 1016.87 1016.89 1016.97 1017.11 1017.31 1017.53 1017.75 1017.94 1018.10 1018.22 1018.32
1009.06 1009.52 1010.11 1010.79 1011.51 1012.18 1012.74 1013.16 1013.44 1013.62 1013.74 1013.87 1014.06 1014.32 1014.64 1015.00 1015.34 1015.63 1015.83 1015.96 1016.04 1016.09 1016.17 1016.29 1016.46 1016.66 1016.86 1017.03 1017.12 1017.15 1017.11 1017.05 1016.99 1016.99 1017.06 1017.21 1017.42 1017.67 1017.92 1018.14 1018.33 1018.47 1018.60
1008.99 1009.53 1010.20 1010.95 1011.72 1012.43 1013.04 1013.50 1013.82 1014.03 1014.18 1014.34 1014.52 1014.77 1015.06 1015.36 1015.64 1015.86 1016.02 1016.12 1016.18 1016.25 1016.35 1016.52 1016.72 1016.95 1017.17 1017.32 1017.39 1017.37 1017.29 1017.17 1017.08 1017.05 1017.11 1017.26 1017.49 1017.77 1018.05 1018.31 1018.53 1018.71 1018.87
1009.07 1009.66 1010.37 1011.16 1011.95 1012.68 1013.30 1013.78 1014.13 1014.37 1014.55 1014.72 1014.92 1015.16 1015.42 1015.68 1015.91 1016.09 1016.20 1016.28 1016.34 1016.43 1016.57 1016.77 1017.01 1017.26 1017.47 1017.60 1017.63 1017.56 1017.42 1017.26 1017.13 1017.08 1017.13 1017.30 1017.55 1017.85 1018.17 1018.47 1018.73 1018.95 1019.15
1009.29 1009.90 1010.61 1011.39 1012.17 1012.88 1013.48 1013.95 1014.29 1014.54 1014.75 1014.94 1015.15 1015.39 1015.64 1015.88 1016.07 1016.22 1016.32 1016.39 1016.47 1016.59 1016.77 1017.00 1017.27 1017.53 1017.72 1017.83 1017.82 1017.70 1017.51 1017.31 1017.15 1017.09 1017.15 1017.33 1017.61 1017.94 1018.29 1018.62 1018.91 1019.17 1019.40
1009.63 1010.21 1010.90 1011.63 1012.34 1012.99 1013.53 1013.95 1014.27 1014.51 1014.72 1014.93 1015.15 1015.40 1015.64 1015.87 1016.06 1016.20 1016.31 1016.39 1016.50 1016.66 1016.88 1017.15 1017.44 1017.70 1017.89 1017.96 1017.91 1017.75 1017.53 1017.30 1017.13 1017.08 1017.16 1017.37 1017.67 1018.04 1018.41 1018.77 1019.08 1019.35 1019.59
1010.02 1010.57 1011.19 1011.83 1012.45 1013.00 1013.45 1013.80 1014.07 1014.29 1014.49 1014.70 1014.93 1015.18 1015.43 1015.66 1015.85 1016.00 1016.12 1016.23 1016.38 1016.59 1016.85 1017.16 1017.47 1017.74 1017.92 1017.97 1017.89 1017.70 1017.46 1017.23 1017.07 1017.04 1017.15 1017.39 1017.74 1018.13 1018.52 1018.88 1019.19 1019.46 1019.69
1010.42 1010.91 1011.45 1012.00 1012.51 1012.95 1013.30 1013.57 1013.78 1013.95 1014.13 1014.34 1014.57 1014.82 1015.07 1015.29 1015.48 1015.64 1015.78 1015.93 1016.12 1016.37 1016.68 1017.02 1017.36 1017.64 1017.81 1017.85 1017.76 1017.56 1017.31 1017.09 1016.96 1016.96 1017.11 1017.39 1017.76 1018.18 1018.59 1018.94 1019.24 1019.48 1019.69
1010.78 1011.22 1011.69 1012.15 1012.55 1012.88 1013.14 1013.33 1013.47 1013.61 1013.77 1013.96 1014.18 1014.42 1014.66 1014.87 1015.05 1015.20 1015.35 1015.52 1015.75 1016.04 1016.39 1016.76 1017.13 1017.42 1017.60 1017.63 1017.53 1017.33 1017.09 1016.89 1016.78 1016.82 1017.00 1017.32 1017.73 1018.16 1018.57 1018.92 1019.20 1019.41 1019.59
1011.09 1011.50 1011.91 1012.29 1012.61 1012.86 1013.03 1013.15 1013.25 1013.36 1013.50 1013.67 1013.88 1014.10 1014.31 1014.50 1014.65 1014.79 1014.93 1015.11 1015.35 1015.66 1016.04 1016.44 1016.83 1017.13 1017.31 1017.35 1017.25 1017.05 1016.82 1016.63 1016.55 1016.61 1016.82 1017.16 1017.59 1018.03 1018.45 1018.79 1019.06 1019.25 1019.40
1011.35 1011.75 1012.12 1012.45 1012.71 1012.89 1013.01 1013.10 1013.17 1013.27 1013.39 1013.55 1013.74 1013.94 1014.11 1014.26 1014.38 1014.48 1014.60 1014.77 1015.00 1015.32 1015.71 1016.12 1016.51 1016.82 1017.00 1017.04 1016.94 1016.74 1016.52 1016.33 1016.25 1016.32 1016.54 1016.89 1017.32 1017.78 1018.20 1018.54 1018.80 1018.99 1019.14
1011.59 1011.97 1012.32 1012.61 1012.84 1012.99 1013.08 1013.16 1013.23 1013.32 1013.45 1013.61 1013.78 1013.95 1014.09 1014.20 1014.27 1014.33 1014.41 1014.55 1014.76 1015.07 1015.44 1015.85 1016.24 1016.54 1016.72 1016.75 1016.64 1016.44 1016.20 1016.00 1015.90 1015.96 1016.16 1016.50 1016.92 1017.37 1017.80 1018.16 1018.44 1018.64 1018.81
1011.80 1012.18 1012.51 1012.77 1012.97 1013.11 1013.20 1013.27 1013.36 1013.47 1013.61 1013.78 1013.94 1014.09 1014.20 1014.27 1014.30 1014.31 1014.35 1014.46 1014.64 1014.92 1015.28 1015.66 1016.03 1016.32 1016.47 1016.49 1016.36 1016.14 1015.87 1015.64 1015.51 1015.52 1015.68 1015.98 1016.38 1016.83 1017.26 1017.65 1017.96 1018.21 1018.41
1012.01 1012.35 1012.66 1012.89 1013.07 1013.19 1013.29 1013.38 1013.48 1013.62 1013.78 1013.96 1014.13 1014.26 1014.36 1014.40 1014.40 1014.38 1014.39 1014.46 1014.62 1014.87 1015.19 1015.54 1015.87 1016.13 1016.26 1016.25 1016.10 1015.84 1015.54 1015.27 1015.08 1015.02 1015.13 1015.37 1015.73 1016.15 1016.59 1017.00 1017.36 1017.67 1017.94
1012.20 1012.50 1012.75 1012.95 1013.10 1013.20 1013.30 1013.40 1013.52 1013.67 1013.85 1014.04 1014.22 1014.36 1014.45 1014.48 1014.47 1014.45 1014.44 1014.50 1014.63 1014.84 1015.13 1015.44 1015.73 1015.95 1016.05 1016.01 1015.83 1015.54 1015.20 1014.87 1014.62 1014.49 1014.52 1014.70 1015.00 1015.39 1015.82 1016.25 1016.66 1017.03 1017.37
1012.39 1012.61 1012.80 1012.94 1013.04 1013.12 1013.20 1013.30 1013.43 1013.60 1013.79 1013.98 1014.17 1014.31 1014.40 1014.45 1014.45 1014.43 1014.44 1014.49 1014.61 1014.80 1015.04 1015.32 1015.56 1015.74 1015.80 1015.73 1015.53 1015.21 1014.84 1014.47 1014.16 1013.96 1013.91 1014.01 1014.24 1014.58 1014.99 1015.43 1015.87 1016.29 1016.68
1012.57 1012.70 1012.81 1012.88 1012.93 1012.98 1013.04 1013.12 1013.24 1013.40 1013.59 1013.78 1013.96 1014.10 1014.21 1014.27 1014.29 1014.30 1014.33 1014.39 1014.51 1014.68 1014.90 1015.12 1015.33 1015.46 1015.49 1015.40 1015.18 1014.86 1014.47 1014.07 1013.72 1013.46 1013.33 1013.35 1013.50 1013.78 1014.15 1014.57 1015.01 1015.46 1015.89
1012.76 1012.80 1012.82 1012.83 1012.83 1012.84 1012.87 1012.93 1013.03 1013.17 1013.32 1013.49 1013.65 1013.79 1013.90 1013.97 1014.03 1014.07 1014.13 1014.21 1014.32 1014.48 1014.67 1014.85 1015.01 1015.11 1015.11 1015.00 1014.78 1014.47 1014.09 1013.69 1013.32 1013.02 1012.83 1012.77 1012.85 1013.04 1013.34 1013.71 1014.13 1014.57 1015.01
1012.97 1012.94 1012.89 1012.84 1012.80 1012.78 1012.79 1012.82 1012.89 1012.99 1013.11 1013.23 1013.36 1013.47 1013.57 1013.65 1013.72 1013.79 1013.87 1013.96 1014.08 1014.22 1014.37 1014.51 1014.62 1014.68 1014.66 1014.55 1014.34 1014.06 1013.71 1013.34 1012.98 1012.67 1012.44 1012.31 1012.30 1012.41 1012.61 1012.91 1013.27 1013.67 1014.08
1013.23 1013.15 1013.06 1012.98 1012.92 1012.88 1012.87 1012.88 1012.92 1012.97 1013.04 1013.10 1013.17 1013.24 1013.31 1013.38 1013.45 1013.52 1013.61 1013.71 1013.82 1013.92 1014.03 1014.12 1014.18 1014.20 1014.16 1014.05 1013.88 1013.64 1013.35 1013.03 1012.71 1012.40 1012.15 1011.98 1011.89 1011.90 1012.00 1012.20 1012.47 1012.79 1013.16
1013.56 1013.47 1013.37 1013.29 1013.22 1013.18 1013.16 1013.16 1013.16 1013.17 1013.17 1013.17 1013.17 1013.18 1013.20 1013.23 1013.28 1013.34 1013.42 1013.50 1013.57 1013.64 1013.69 1013.72 1013.73 1013.70 1013.65 1013.55 1013.41 1013.23 1013.01 1012.76 1012.50 1012.23 1011.98 1011.76 1011.61 1011.53 1011.52 1011.60 1011.76 1011.99 1012.28
1013.96 1013.88 1013.79 1013.73 1013.68 1013.65 1013.63 1013.61 1013.59 1013.56 1013.51 1013.44 1013.37 1013.30 1013.26 1013.24 1013.25 1013.27 1013.31 1013.35 1013.38 1013.39 1013.38 1013.34 1013.29 1013.22 1013.14 1013.05 1012.96 1012.84 1012.70 1012.53 1012.34 1012.11 1011.88 1011.65 1011.44 1011.27 1011.17 1011.13 1011.17 1011.30 1011.50
1014.41 1014.36 1014.30 1014.25 1014.22 1014.21 1014.20 1014.18 1014.14 1014.06 1013.96 1013.83 1013.70 1013.56 1013.45 1013.37 1013.32 1013.29 1013.29 1013.27 1013.24 1013.18 1013.10 1012.99 1012.88 1012.77 1012.67 1012.59 1012.52 1012.47 1012.40 1012.32 1012.20 1012.03 1011.82 1011.59 1011.34 1011.11 1010.91 1010.77 1010.70 1010.72 1010.83
1014.88 1014.85 1014.82 1014.79 1014.77 1014.76 1014.76 1014.73 1014.68 1014.58 1014.44 1014.26 1014.06 1013.87 1013.70 1013.56 1013.45 1013.37 1013.30 1013.22 1013.13 1013.00 1012.85 1012.68 1012.50 1012.35 1012.23 1012.15 1012.11 1012.11 1012.11 1012.10 1012.05 1011.94 1011.77 1011.54 1011.27 1010.99 1010.72 1010.49 1010.33 1010.26 1010.29
Thickness
5839 5833 5819 5814 5810 5807 5804 5802 5799 5796 5793 5789 5786 5783 5779 5777 5774 5772 5770 5767 5765 5764 5762 5761 5760 5759 5758 5756 5755 5754 5753 5752 5751 5750 5749 5748 5747 5747 5747 5746 5747 5746 5743
5842 5831 5818 5813 5809 5806 5803 5800 5797 5794 5791 5788 5784 5781 5778 5775 5773 5770 5768 5766 5764 5762 5761 5759 5759 5758 5756 5755 5754 5752 5751 5750 5749 5749 5748 5747 5746 5745 5745 5745 5746 5745 5742
5838 5828 5817 5812 5808 5804 5801 5798 5795 5792 5789 5785 5782 5779 5776 5773 5771 5768 5766 5764 5762 5761 5759 5758 5757 5756 5754 5753 5752 5751 5749 5749 5748 5747 5748 5751 5746 5743 5743 5743 5742 5741 5740
5835 5826 5817 5810 5806 5802 5799 5795 5792 5789 5786 5783 5780 5777 5774 5771 5769 5766 5764 5762 5761 5759 5757 5756 5754 5753 5752 5751 5750 5749 5747 5747 5746 5747 5751 5751 5748 5741 5741 5740 5739 5738 5738
5831 5824 5815 5807 5803 5799 5796 5792 5789 5786 5783 5780 5777 5774 5771 5768 5766 5764 5762 5760 5759 5757 5755 5754 5752 5751 5750 5748 5747 5746 5746 5745 5745 5748 5751 5749 5746 5740 5739 5738 5737 5736 5736
5827 5821 5812 5804 5799 5796 5792 5789 5786 5783 5780 5777 5774 5771 5768 5766 5763 5761 5760 5758 5756 5755 5753 5751 5750 5748 5747 5746 5745 5744 5744 5743 5745 5751 5748 5747 5744 5739 5737 5736 5736 5735 5734
5824 5818 5808 5799 5795 5791 5788 5785 5782 5778 5776 5773 5770 5767 5765 5762 5760 5758 5757 5755 5754 5752 5750 5749 5747 5746 5745 5743 5743 5742 5741 5742 5748 5750 5747 5746 5742 5737 5736 5735 5734 5733 5733
5821 5815 5804 5795 5791 5787 5783 5780 5777 5774 5772 5769 5766 5764 5761 5759 5757 5756 5754 5752 5751 5749 5748 5746 5744 5743 5742 5741 5740 5739 5739 5740 5745 5748 5746 5745 5739 5736 5735 5734 5733 5732 5731
5818 5812 5802 5795 5788 5783 5780 5776 5773 5771 5768 5765 5763 5760 5758 5756 5754 5753 5751 5750 5748 5747 5745 5744 5742 5741 5739 5738 5737 5737 5737 5737 5743 5746 5746 5744 5738 5735 5734 5732 5731 5731 5730
5811 5807 5801 5794 5788 5783 5779 5774 5770 5767 5765 5762 5759 5756 5754 5753 5751 5750 5749 5747 5746 5744 5743 5741 5740 5739 5737 5736 5735 5735 5734 5735 5741 5744 5743 5741 5736 5734 5733 5732 5731 5730 5729
5801 5800 5797 5792 5786 5782 5779 5774 5768 5764 5761 5758 5755 5753 5751 5752 5752 5750 5749 5746 5743 5742 5740 5739 5738 5737 5735 5734 5733 5732 5732 5737 5742 5743 5741 5738 5735 5732 5732 5731 5730 5729 5728
5793 5792 5792 5789 5783 5780 5777 5772 5767 5764 5760 5757 5755 5752 5749 5749 5749 5749 5747 5743 5741 5739 5738 5736 5735 5734 5733 5736 5734 5731 5734 5737 5741 5741 5739 5735 5733 5731 5731 5730 5729 5728 5727
5790 5787 5787 5783 5779 5777 5773 5769 5765 5762 5758 5755 5752 5749 5746 5745 5744 5744 5743 5741 5739 5738 5737 5736 5734 5734 5734 5735 5735 5733 5735 5738 5739 5740 5739 5734 5731 5730 5730 5729 5728 5727 5727
5785 5782 5781 5778 5774 5771 5768 5765 5760 5758 5755 5753 5749 5746 5743 5741 5740 5740 5738 5738 5737 5736 5734 5733 5733 5732 5731 5730 5730 5731 5732 5732 5735 5736 5735 5732 5729 5729 5729 5728 5728 5727 5726
5780 5778 5775 5773 5769 5765 5761 5757 5756 5752 5751 5748 5744 5741 5738 5736 5735 5734 5733 5731 5732 5732 5731 5729 5728 5727 5727 5726 5726 5727 5727 5729 5730 5732 5733 5730 5728 5727 5728 5728 5727 5727 5726
5775 5772 5770 5767 5764 5759 5755 5751 5749 5747 5744 5742 5738 5734 5732 5730 5730 5729 5727 5727 5727 5727 5726 5725 5724 5723 5723 5723 5724 5723 5724 5725 5726 5728 5729 5729 5727 5727 5727 5727 5728 5727 5726
5769 5767 5763 5760 5758 5753 5750 5747 5745 5742 5739 5736 5733 5730 5727 5725 5724 5723 5724 5724 5723 5723 5721 5720 5720 5720 5720 5721 5722 5722 5722 5722 5724 5726 5727 5727 5728 5727 5727 5727 5727 5727 5727
5762 5758 5756 5756 5752 5747 5744 5741 5740 5737 5734 5730 5728 5725 5723 5721 5720 5719 5720 5720 5719 5719 5719 5718 5717 5716 5717 5718 5719 5721 5721 5721 5723 5724 5725 5726 5726 5729 5728 5727 5727 5727 5727
5753 5750 5748 5747 5744 5742 5739 5736 5734 5731 5729 5726 5723 5721 5719 5717 5716 5716 5716 5716 5715 5716 5715 5714 5715 5712 5712 5713 5716 5718 5720 5720 5722 5723 5725 5726 5726 5726 5729 5729 5727 5727 5726
5746 5743 5741 5738 5736 5735 5733 5730 5728 5726 5725 5722 5720 5716 5714 5713 5712 5711 5711 5711 5710 5710 5709 5708 5708 5708 5708 5709 5712 5716 5717 5719 5720 5722 5723 5725 5727 5727 5728 5729 5728 5727 5726
5738 5735 5733 5731 5729 5727 5725 5723 5721 5720 5718 5717 5715 5711 5709 5708 5707 5706 5707 5705 5704 5704 5703 5704 5703 5703 5703 5704 5703 5706 5712 5717 5719 5720 5722 5724 5728 5728 5727 5727 5728 5728 5728
5731 5728 5727 5724 5723 5721 5718 5716 5714 5712 5712 5711 5708 5704 5702 5701 5699 5701 5699 5699 5699 5697 5696 5697 5695 5696 5698 5699 5698 5697 5700 5709 5714 5721 5722 5722 5724 5726 5726 5726 5726 5726 5727
5726 5723 5722 5718 5716 5713 5712 5711 5709 5706 5704 5703 5700 5698 5695 5693 5693 5691 5691 5691 5691 5691 5692 5689 5689 5689 5690 5693 5694 5692 5692 5698 5707 5714 5717 5719 5719 5721 5723 5725 5724 5725 5725
5722 5721 5717 5712 5709 5707 5705 5703 5700 5697 5695 5694 5692 5691 5688 5687 5685 5684 5683 5683 5682 5684 5683 5683 5685 5683 5681 5683 5686 5688 5690 5694 5692 5699 5707 5712 5713 5713 5716 5719 5723 5723 5723
5719 5716 5712 5706 5702 5700 5697 5694 5692 5690 5689 5689 5686 5683 5680 5681 5678 5677 5676 5675 5674 5675 5675 5673 5673 5674 5676 5677 5679 5681 5683 5684 5687 5687 5693 5700 5705 5709 5712 5714 5716 5719 5722
5715 5711 5707 5701 5696 5693 5690 5688 5684 5681 5678 5676 5674 5673 5673 5674 5672 5671 5668 5666 5665 5666 5666 5665 5665 5666 5667 5669 5670 5674 5675 5677 5680 5684 5685 5688 5693 5701 5706 5708 5711 5715 5717